Stündliche Wetter Otradnyy

Heute, 14 April, Mittwoch

Zeit Temperatur Niederschläge Wind Luftdruck Luftfeuchtigkeit
00:00 +10°C° 0 mm 3 m/S 767 mmHg 79%
01:00 +9°C° 0 mm 3 m/S 767 mmHg 84%
02:00 +9°C° 0 mm 2 m/S 767 mmHg 89%
03:00 +8°C° 0 mm 2 m/S 768 mmHg 94%
04:00 +8°C° 0 mm 3 m/S 767 mmHg 95%
05:00 +8°C° 0 mm 3 m/S 767 mmHg 96%
06:00 +8°C° 0 mm 3 m/S 767 mmHg 97%
07:00 +9°C° 0 mm 3 m/S 767 mmHg 93%
08:00 +10°C° 0 mm 4 m/S 767 mmHg 88%
09:00 +11°C° 0 mm 4 m/S 767 mmHg 84%
10:00 +13°C° 0 mm 4 m/S 766 mmHg 75%
11:00 +15°C° 0 mm 4 m/S 765 mmHg 67%
12:00 +18°C° 0 mm 4 m/S 765 mmHg 58%
13:00 +18°C° 0 mm 4 m/S 764 mmHg 56%
14:00 +17°C° 0 mm 5 m/S 764 mmHg 54%
15:00 +19°C° 0 mm 5 m/S 763 mmHg 50%
16:00 +18°C° 0 mm 4 m/S 763 mmHg 57%
17:00 +17°C° 0 mm 3 m/S 763 mmHg 63%
18:00 +16°C° 0 mm 3 m/S 762 mmHg 69%
19:00 +14°C° 0 mm 3 m/S 762 mmHg 72%
20:00 +13°C° 0 mm 3 m/S 762 mmHg 75%
21:00 +12°C° 0 mm 3 m/S 762 mmHg 77%
22:00 +11°C° 0 mm 3 m/S 762 mmHg 77%
23:00 +10°C° 0 mm 3 m/S 762 mmHg 78%

Morgen, 15 April, Donnerstag

Zeit Temperatur Niederschläge Wind Luftdruck Luftfeuchtigkeit
00:00 +10°C° 0 mm 3 m/S 761 mmHg 78%
01:00 +9°C° 0 mm 3 m/S 761 mmHg 79%
02:00 +9°C° 0 mm 3 m/S 761 mmHg 79%
03:00 +8°C° 0 mm 3 m/S 761 mmHg 80%
04:00 +9°C° 0 mm 2 m/S 761 mmHg 80%
05:00 +9°C° 0 mm 2 m/S 761 mmHg 80%
06:00 +9°C° 0 mm 2 m/S 760 mmHg 80%
07:00 +11°C° 0 mm 3 m/S 760 mmHg 71%
08:00 +13°C° 0 mm 4 m/S 760 mmHg 61%
09:00 +17°C° 0 mm 4 m/S 760 mmHg 52%
10:00 +18°C° 0 mm 4 m/S 760 mmHg 46%
11:00 +20°C° 0 mm 5 m/S 759 mmHg 41%
12:00 +21°C° 0 mm 5 m/S 759 mmHg 36%
13:00 +21°C° 0 mm 5 m/S 759 mmHg 35%
14:00 +21°C° 0 mm 5 m/S 758 mmHg 33%
15:00 +22°C° 0 mm 5 m/S 758 mmHg 32%
16:00 +20°C° 0 mm 4 m/S 758 mmHg 37%
17:00 +19°C° 0 mm 3 m/S 758 mmHg 42%
18:00 +17°C° 0 mm 3 m/S 758 mmHg 48%
19:00 +16°C° 0 mm 2 m/S 758 mmHg 49%
20:00 +15°C° 0 mm 2 m/S 758 mmHg 51%
21:00 +14°C° 0 mm 2 m/S 758 mmHg 53%
22:00 +14°C° 0 mm 2 m/S 757 mmHg 55%
23:00 +13°C° 0 mm 2 m/S 757 mmHg 57%

übermorgen, 16 April, Freitag

Zeit Temperatur Niederschläge Wind Luftdruck Luftfeuchtigkeit
00:00 +12°C° 0 mm 2 m/S 757 mmHg 59%
01:00 +12°C° 0 mm 2 m/S 757 mmHg 60%
02:00 +10°C° 0 mm 2 m/S 757 mmHg 61%
03:00 +10°C° 0 mm 2 m/S 757 mmHg 62%
04:00 +10°C° 0 mm 2 m/S 757 mmHg 63%
05:00 +10°C° 0 mm 2 m/S 757 mmHg 63%
06:00 +10°C° 0 mm 2 m/S 757 mmHg 63%
07:00 +13°C° 0 mm 2 m/S 757 mmHg 56%
08:00 +15°C° 0 mm 2 m/S 757 mmHg 50%
09:00 +17°C° 0 mm 3 m/S 758 mmHg 44%
10:00 +18°C° 0 mm 3 m/S 757 mmHg 40%
11:00 +20°C° 0 mm 3 m/S 757 mmHg 36%
12:00 +21°C° 0 mm 3 m/S 757 mmHg 32%
13:00 +21°C° 0 mm 3 m/S 757 mmHg 31%
14:00 +21°C° 0 mm 3 m/S 757 mmHg 29%
15:00 +21°C° 0 mm 3 m/S 757 mmHg 28%
16:00 +20°C° 0 mm 3 m/S 757 mmHg 33%
17:00 +19°C° 0 mm 3 m/S 757 mmHg 39%
18:00 +18°C° 0 mm 3 m/S 757 mmHg 44%
19:00 +16°C° 0 mm 3 m/S 757 mmHg 47%
20:00 +14°C° 0 mm 3 m/S 758 mmHg 51%
21:00 +13°C° 0 mm 3 m/S 758 mmHg 54%
22:00 +12°C° 0 mm 4 m/S 758 mmHg 64%
23:00 +11°C° 0 mm 4 m/S 758 mmHg 73%

17 April, Samstag

Zeit Temperatur Niederschläge Wind Luftdruck Luftfeuchtigkeit
00:00 +11°C° 0 mm 4 m/S 758 mmHg 83%
01:00 +10°C° 0 mm 4 m/S 758 mmHg 84%
02:00 +8°C° 0 mm 4 m/S 759 mmHg 86%
03:00 +7°C° 0 mm 4 m/S 759 mmHg 88%
04:00 +7°C° 0 mm 4 m/S 759 mmHg 87%
05:00 +7°C° 0 mm 4 m/S 759 mmHg 86%
06:00 +7°C° 0 mm 4 m/S 759 mmHg 84%
07:00 +8°C° 0 mm 5 m/S 759 mmHg 78%
08:00 +10°C° 0 mm 5 m/S 760 mmHg 71%
09:00 +12°C° 0 mm 5 m/S 760 mmHg 65%
10:00 +13°C° 0 mm 5 m/S 760 mmHg 60%
11:00 +14°C° 0 mm 6 m/S 760 mmHg 56%
12:00 +15°C° 0 mm 6 m/S 759 mmHg 52%
13:00 +15°C° 0 mm 6 m/S 759 mmHg 50%
14:00 +16°C° 0 mm 6 m/S 759 mmHg 47%
15:00 +16°C° 0 mm 6 m/S 759 mmHg 45%
16:00 +15°C° 0 mm 6 m/S 759 mmHg 45%
17:00 +14°C° 0 mm 5 m/S 759 mmHg 45%
18:00 +13°C° 0 mm 5 m/S 759 mmHg 46%
19:00 +12°C° 0 mm 5 m/S 759 mmHg 47%
20:00 +9°C° 0 mm 5 m/S 760 mmHg 49%
21:00 +8°C° 0 mm 5 m/S 760 mmHg 51%
22:00 +8°C° 0 mm 5 m/S 760 mmHg 52%
23:00 +7°C° 0 mm 5 m/S 760 mmHg 54%

18 April, Sonntag

Zeit Temperatur Niederschläge Wind Luftdruck Luftfeuchtigkeit
00:00 +6°C° 0 mm 5 m/S 760 mmHg 56%
01:00 +6°C° 0 mm 4 m/S 760 mmHg 59%
02:00 +5°C° 0 mm 4 m/S 760 mmHg 61%
03:00 +4°C° 0 mm 4 m/S 760 mmHg 63%
04:00 +5°C° 0 mm 4 m/S 760 mmHg 64%
05:00 +5°C° 0 mm 4 m/S 760 mmHg 64%
06:00 +5°C° 0 mm 4 m/S 760 mmHg 65%
07:00 +6°C° 0 mm 4 m/S 760 mmHg 59%
08:00 +8°C° 0 mm 5 m/S 760 mmHg 53%
09:00 +9°C° 0 mm 5 m/S 760 mmHg 48%
10:00 +10°C° 0 mm 6 m/S 760 mmHg 44%
11:00 +11°C° 0 mm 6 m/S 760 mmHg 41%
12:00 +13°C° 0 mm 6 m/S 760 mmHg 38%
13:00 +13°C° 0 mm 6 m/S 760 mmHg 38%
14:00 +12°C° 0 mm 7 m/S 760 mmHg 38%
15:00 +12°C° 0 mm 7 m/S 760 mmHg 38%
16:00 +12°C° 0 mm 7 m/S 760 mmHg 42%
17:00 +11°C° 0 mm 7 m/S 760 mmHg 45%
18:00 +10°C° 0 mm 6 m/S 760 mmHg 48%
19:00 +8°C° 0 mm 7 m/S 761 mmHg 48%
20:00 +5°C° 0 mm 7 m/S 762 mmHg 47%
21:00 +4°C° 0 mm 7 m/S 762 mmHg 47%
22:00 +3°C° 0 mm 7 m/S 763 mmHg 47%
23:00 +2°C° 0 mm 6 m/S 763 mmHg 46%

19 April, Montag

Zeit Temperatur Niederschläge Wind Luftdruck Luftfeuchtigkeit
00:00 +2°C° 0 mm 6 m/S 763 mmHg 46%
01:00 +1°C° 0 mm 6 m/S 763 mmHg 48%
02:00 -1°C° 0 mm 6 m/S 764 mmHg 51%
03:00 -1°C° 0 mm 7 m/S 764 mmHg 53%
04:00 -1°C° 0 mm 7 m/S 764 mmHg 55%
05:00 -1°C° 0 mm 7 m/S 765 mmHg 57%
06:00 -1°C° 0 mm 7 m/S 765 mmHg 58%
07:00 0°C° 0 mm 7 m/S 765 mmHg 51%
08:00 +1°C° 0 mm 8 m/S 766 mmHg 44%
09:00 +2°C° 0 mm 8 m/S 766 mmHg 37%
10:00 +4°C° 0 mm 8 m/S 766 mmHg 34%
11:00 +5°C° 0 mm 8 m/S 767 mmHg 32%
12:00 +5°C° 0 mm 7 m/S 767 mmHg 29%
13:00 +6°C° 0 mm 7 m/S 767 mmHg 29%
14:00 +6°C° 0 mm 7 m/S 767 mmHg 28%
15:00 +6°C° 0 mm 7 m/S 767 mmHg 27%
16:00 +5°C° 0 mm 6 m/S 768 mmHg 30%
17:00 +4°C° 0 mm 6 m/S 768 mmHg 32%
18:00 +5°C° 0 mm 5 m/S 768 mmHg 35%
19:00 +3°C° 0 mm 5 m/S 769 mmHg 38%
20:00 +3°C° 0 mm 4 m/S 769 mmHg 41%
21:00 +1°C° 0 mm 4 m/S 770 mmHg 45%
22:00 +1°C° 0 mm 3 m/S 770 mmHg 47%
23:00 0°C° 0 mm 3 m/S 770 mmHg 49%
Mehr zeigen

Wir brauchen deine Erlaubnis

Meteoprog und unser Service Anbieter werden persönliche Daten aufbewahren, so wie Cookies, Geräte Bezeichnung oder ähnliche Technologien von deinem Gerät und Prozess, so wie Persönliche Daten Inhalte und Werbungen, genauso wie social Media und den Verkehr zu analysieren.

  • Aufbewahrung und/oder Zugang zu deiner Geräte Informationen.

    Cookies, Geräte Bezeichnung oder andere Informationen, können aufbewahrt oder Zugang zu deinem Gerät erhalten, für den Grund, der oben angegeben wird.

  • Personalisierte Werbung und Inhalte, Messungen, Einblick in das Publikum und Produkt Entwicklung.

    Werbungen und Inhalte können personalisiert werden, basierend auf ein Profil. Mehr Daten können besser personalisierte Werbungen und Inhalte hinzufügen. Werbung und Inhalte können gezeigt und gemessen werden. Einblicke über das Publikum, welche die Werbung gesehen haben und den Inhalt, können abgeleitet werden. So wie Daten können genutzt werden, um es zu verbessern oder die Benutzer Erfahrung zu verbessern das System und die Software.

Wenn du “Ich stimme zu” klickst, erlaubst du uns, die Cookies zu benutzen die Geräte Bezeichnung, den Web oder ähnliche Technologien zu benutzen. Deine Settings, können in deinem Gerät bei deinem Browser geändert werden.

Für den bestimmten Zweck, berechtigten Interessen beruhen darauf, mehr als auf den Inhalt. Du kannst mehr darüber in unseren Privaten und Cookie Politik lesen.